• Join FlightAware (Why Join?)
  • Login
  • US Flag GB Flag 
13:22 EST


 

Airport Tracker/Info


-or-


 

Live Flight TrackerFlight Track Log ✈ UAL1259 ✈ 24-Apr-2013 ✈ KLAX - KSFO

Flight Track Log - Related Links

Times and Time Zones

All times are in EDT time to prevent confusion due to time zone crossing. See the UAL1259 flight status page for this flight to view local times or setup timezone preferences in your user account.

Time Position Orientation Groundspeed Altitude Reporting Facility
EDT Latitude Longitude Course Direction KTS MPH feet Rate Location/Type
23:01 33.9333 -118.4500 320° Northwest 191 220 1,600  Level Southern California TRACON
23:01 33.9322 -118.4683 266° West 201 231 2,100 2,692 Climbing Los Angeles Center
23:02 33.9264 -118.5581 266° West 249 287 5,100 3,097 Climbing Los Angeles Center
23:03 34.0204 -118.7170 285° West  Level FlightAware Approximate
23:03 33.9217 -118.6569 267° West 292 336 8,500  Level Los Angeles Center
23:04 34.0444 -118.8247 285° West  Level FlightAware Approximate
23:04 33.9153 -118.7628 266° West 317 365 11,100  Level Los Angeles Center
23:05 34.0807 -118.9269 296° West  Level FlightAware Approximate
23:05 33.9100 -118.8736 267° West 361 415 13,700  Level Los Angeles Center
23:06 34.1009 -119.0343 320° Northwest  Level FlightAware Approximate
23:06 33.9722 -118.9989 301° West 369 425 17,600  Level Los Angeles Center
23:07 34.0406 -119.0944 311° West 378 435 20,300 2,439 Climbing Los Angeles Center
23:08 34.1108 -119.1975 309° West 399 459 22,600 2,390 Climbing Los Angeles Center
23:09 34.1800 -119.2983 310° West 393 452 25,200 2,146 Climbing Los Angeles Center
23:10 34.2517 -119.4008 310° West 398 458 27,000 1,512 Climbing Los Angeles Center
23:11 34.3256 -119.5083 310° West 412 474 28,300 1,306 Climbing Los Angeles Center
23:13 34.4033 -119.6189 310° West 430 495 29,700 1,220 Climbing Los Angeles Center
23:14 34.4644 -119.7106 309° West 434 499 30,800 1,415 Climbing Los Angeles Center
23:15 34.5756 -119.8742 310° West 448 516 32,600 1,463 Climbing Los Angeles Center
23:16 34.6514 -119.9794 311° West 452 520 33,800 1,610 Climbing Los Angeles Center
23:17 34.7322 -120.0925 311° West 446 513 35,900 1,355 Climbing Los Angeles Center
23:18 34.8181 -120.1911 317° Northwest 434 499 36,600 732 Climbing Los Angeles Center
23:19 34.9278 -120.3031 320° Northwest 434 499 37,400 634 Climbing Los Angeles Center
23:20 35.0206 -120.3997 320° Northwest 445 512 37,900 290 Climbing Los Angeles Center
23:21 35.1131 -120.4983 319° Northwest 446 513 38,000  Climbing Los Angeles Center
23:22 35.2053 -120.5956 319° Northwest 441 507 37,900 -49 Descending Los Angeles Center
23:23 35.2964 -120.6919 319° Northwest 436 502 37,900 49 Level Los Angeles Center
23:24 35.3875 -120.7881 319° Northwest 435 501 38,000 58 Climbing Los Angeles Center
23:25 35.4511 -120.8553 319° Northwest 430 495 38,000  Level Oakland Center
23:26 35.5597 -120.9714 319° Northwest 428 493 38,000  Level Oakland Center
23:27 35.6497 -121.0658 320° Northwest 425 489 38,000 -344 Level Oakland Center
23:28 35.7453 -121.1500 324° Northwest 423 487 37,300 -1,475 Descending Oakland Center
23:29 35.8461 -121.2306 327° Northwest 431 496 35,000 -2,016 Descending Oakland Center
23:30 35.9464 -121.3106 327° Northwest 427 491 33,200 -2,311 Descending Oakland Center
23:31 36.0442 -121.3897 327° Northwest 420 483 30,300 -2,508 Descending Oakland Center
23:32 36.1389 -121.4681 326° Northwest 408 470 28,100 -2,213 Descending Oakland Center
23:33 36.2311 -121.5422 327° Northwest 395 455 25,800 -2,311 Descending Oakland Center
23:34 36.3208 -121.6164 326° Northwest 388 447 23,400 -2,293 Descending Oakland Center
23:35 36.4086 -121.6872 327° Northwest 379 436 21,100 -1,707 Descending Oakland Center
23:36 36.4942 -121.7581 326° Northwest 370 426 19,900 -846 Descending Oakland Center
23:36 36.5333 -121.7833 333° Northwest 366 421 20,000 -623 Climbing Northern Cal TRACON
23:37 36.6167 -121.8333 334° Northwest 365 420 19,100 -950 Descending Northern Cal TRACON
23:38 36.7167 -121.8833 338° Northwest 362 417 18,100 -1,421 Descending Northern Cal TRACON
23:39 36.8000 -121.9333 334° Northwest 351 404 16,400 -1,947 Descending Northern Cal TRACON
23:40 36.8833 -121.9667 342° North 342 394 14,400 -1,842 Descending Northern Cal TRACON
23:41 36.9561 -122.0050 337° Northwest 338 389 12,900 -1,409 Descending Oakland Center
23:42 37.0425 -122.0403 342° North 328 377 11,700 -1,328 Descending Oakland Center
23:43 37.1294 -122.0633 348° North 319 367 10,200 -934 Descending Oakland Center
23:44 37.2106 -122.0853 348° North 302 348 9,800 -1,131 Descending Oakland Center
23:45 37.2869 -122.1053 348° North 284 327 7,900 -1,721 Descending Oakland Center
23:46 37.3800 -122.1300 348° North 284 327 6,300 -1,525 Descending Oakland Center
23:47 37.4531 -122.1497 348° North 272 313 4,800 -1,082 Descending Oakland Center
23:48 37.5197 -122.1697 347° North 254 292 4,100 -1,033 Descending Oakland Center
23:49 37.5542 -122.2258 308° West 223 257 2,700 -1,377 Descending Oakland Center